Misión y Visión

La misión es proporcionar información fiable a la navegación aérea, contribuyendo a la seguridad, regularidad y eficiencia de la Navegación Aérea Internacional

La visión es contribuir sustancialmente al desarrollo de conocimientos y a la utilización de la meteorología aeronáutica a nivel nacional e internacional, mediante la innovación y la coparticipación con sectores sociales y productivos de la sociedad.

 
  Inicio
  Metar
  Taf
  Wintemp
  SIGMET
  Avisos
  Pronósticos
  Carpeta Meteorologica
  Imágenes Satelitales
  Climatología Aeronáutica
   
  ¿Quienes Somos?
  Contacto
  Eventos
Taf

 

IMÁGENES DEL AEROPUERTO
(EN CONSTRUCCION)

 

PRONOSTICO DE AERÓDROMO
TAF / PROYECCION CLIMATICA
MES DE JULIO

 

AEROPUERTO ENRIQUE MALEK:

TAF MPSM 300400Z 3006/3112 34003KT 9999 FEW018 SCT090 PROB40 TEMPO 3019/3023 16008KT 6000 TSRA SCT015CB BKN090 TEMPO 3023/3102 05005KT= ________________________________________


TAF:

TAF MPDA 300400Z 3006/3018 00000KT 9999 FEW020 SCT100 BECMG 3015/3018 22004KT=

 

AEROPUERTO PANAMA PACIFICO:

hola



TAF:



AEROPUERTO MARCOS A. GELABERT:



TAF:

TAF MPMG 300400Z 3006/3018 00000KT 9999 FEW020 SCT100 BECMG 3014/3018 35004KT= ________________________________________

AEROPUERTO INTL. DE TOCUMEN:

TAF MPPA 300400Z 3006/3112 00000KT 9999 FEW018 SCT090 PROB40 TEMPO 3019/3023 18008KT 5000 TSRA SCT015CB BKN080 TEMPO 3023/3102 35004KT= ________________________________________



TAF:

TAF MPTO 300400Z 3006/3112 00000KT 9999 FEW018 SCT090 PROB40 TEMPO 3019/3023 18006KT 5000 TSRA SCT015CB BKN090 TEMPO 3023/3103 32004KT= ________________________________________


 
 



























  Noticias AAC
  Directorio
  Contáctenos
  Historia
  Quejas y Sugerencias
  Etica y Transparencia

  Gestión SSP/SMS
  Seguridad Aérea
  Navegación Aérea
  Transporte Aéreo

  Tramites
  Áeronaves de Alquiler

  Meteorología
  I.S.F.P.A
  Notam
  Peligro Aviario
  AVSEC
  UPIA
  Permisos
 




DECLARACIÓN DE PRIVACIDAD